Location: Home
(42.5358°N, 72.7383°W)
Time: 18:41:51
(UTC-05:00)

Explorer 7 - Pass Details

Date: 08 December 2021
Orbit: 483 x 674 km, 50.3° (Epoch: 23 January)

Event Time Altitude Azimuth Distance (km) Brightness Sun altitude
Rises 10:19:41 0° 295° (WNW) 2,652 9.9 21.9°
Reaches altitude 10° 10:22:05 10° 286° (WNW) 1,732 9.1 22.1°
Maximum altitude 10:25:35 32° 222° (SW) 868 8.4 22.3°
Drops below altitude 10° 10:28:58 10° 158° (SSE) 1,667 11.4 22.5°
Sets 10:31:14 0° 148° (SSE) 2,533 11.5 22.6°
